Weather in Ambato

Ecuador     1°15′10″S   78°37′57″W
temp.,
°C
wind,
m/s
gust,
m/s
humid.,
%
clouds,
%
prec.,
mm/h
press.,
hPa
HPBL,
m
5 march, fri
fri501:00+6e2298100 1.8 1014168
04:00+5sw0197100 0.3 101392
07:00+5e2298100 0.7 1014131
10:00+9e4481100 0.3 1016613
13:00+13e335994 0.9 10121211
16:00+12e117091 1.8 1010784
19:00+8sw009295 4.5 101258
22:00+6e2399100 2.1 1014105
6 march, sat
sat601:00+6ese1298100 3.0 1014122
04:00+5ese129795 0.0 1012123
07:00+5ene129797 0.3 1014182
10:00+8e3484100 0.1 1015544
13:00+13e546084 0.6 10111120
16:00+12e446948 1.2 1009932
19:00+6ese239670 2.4 1012191
22:00+5se1193100 0.1 101573
7 march, sun
sun701:00+4se1199100 0.1 101458
04:00+6e119799 0.1 1013134
07:00+5e229897 0.6 1015171
10:00+6e2294100 0.8 1016263
13:00+12e546882 1.1 1013785
16:00+12e336733 0.8 1011913
19:00+6ese339758 1.8 1013216
22:00+6e1297100 1.6 1016133
8 march, mon
mon801:00+6ese2298100 2.3 1015112
04:00+6e2298100 0.6 1014161
07:00+5ese1297100 1.2 1016125
10:00+9e4481100 0.3 1017613
13:00+9e448595 1.1 1014489
16:00+11e336860 0.7 1011856
19:00+6e118966 1.4 1014182
22:00+4sse119891 0.1 101625
9 march, tue
tue901:00+5ese009293 0.3 101577
04:00+4e1195100 0.1 101327
07:00+5sse0194100 0.1 101549
10:00+11e326990 0.3 1016831
13:00+11e127489 2.1 1013784
16:00+9wnw1186100 3.3 1011406
19:00+7wsw2493100 7.8 1013348
22:00+6sw0194100 3.2 1015139